Погода в Шахунье

Россия / Нижегородская область     57°40′34″N   46°36′46″E
темп.,
°C
ветер,
м/с
пор.,
м/с
влажн.,
%
обл.,
%
осадки,
мм/ч
давл.,
гПа
погр.,
м
8 мая, сб
сб800:00+4юз359611 0.0 1016104
03:00+3юз11891 0.0 101710
06:00+6ююз12825 0.0 101782
09:00+12юв235814 0.0 1017695
12:00+14ююв344118 0.0 10171825
15:00+15юв4539100 0.0 10151821
18:00+12вюв485723 0.0 1014326
21:00+9юв51376100 0.0 1013353
9 мая, вс
вс900:00+9юв51383100 0.0 1011395
03:00+10ююв61484100 0.0 1009542
06:00+10ююв51385100 0.1 1009492
09:00+12ююв51478100 0.1 1009592
12:00+17ю71167100 0.1 10091065
15:00+18ююв51069100 0.6 10091235
18:00+16ю81475100 1.0 10081085
21:00+11з3597100 3.5 1012323
10 мая, пн
пн1000:00+9зюз3696100 0.6 1014392
03:00+7зюз4793100 0.9 1017513
06:00+6зсз4693100 0.0 1020600
09:00+6сз5892100 0.1 1023721
12:00+9с577187 0.1 10251084
15:00+13с46486 0.1 10261677
18:00+12с36575 0.0 1028289
21:00+7ссв22720 0.0 102924
11 мая, вт
вт1100:00+5св22805 0.0 103113
03:00+4св11838 0.0 103210
06:00+7в11737 0.0 103393
09:00+13вюв12525 0.0 1033697
12:00+16в114136 0.0 10321113
15:00+18св12395 0.0 10311260
18:00+17вюв115559 0.0 103117
21:00+11ююв22675 0.0 103218
12 мая, ср
ср1200:00+9ююв11705 0.0 103210
03:00+8вюв22705 0.0 103210
06:00+11вюв23695 0.0 1033109
09:00+16вюв34529 0.0 1032646
12:00+19юв344133 0.0 10311064
15:00+21юв233910 0.0 10301110
18:00+19юв24595 0.0 102997
21:00+13вюв23704 0.0 102924